EW4266 Weather Reports


time (UTC)temp
C
wind
direction
speed
KPH
gust
KPH
rain 1hr
cm
rain 24hr
cm
rain mn
cm
humidity
%
barometer
mb
20260504070331 7 171 6.4 12.9 0.00 0.00 0.00 39 1007.7
20260504070254 7 187 4.8 12.9 0.00 0.00 0.00 39 1007.7
20260504070214 7 200 3.2 11.3 0.00 0.00 0.00 39 1007.6
20260504070117 7 140 3.2 6.4 0.00 0.00 0.00 38 1007.6
20260504060132 7 190 6.4 14.5 0.00 0.00 0.00 49 1008.1
20260504050731 7 165 6.4 16.1 0.00 0.00 0.00 51 1008.1
20260504050540 7 162 6.4 16.1 0.00 0.00 0.00 51 1008.0
20260504050438 7 171 8.0 16.1 0.00 0.00 0.00 51 1008.0
20260504050334 7 155 6.4 16.1 0.00 0.00 0.00 51 1008.0
20260504050255 7 160 6.4 16.1 0.00 0.00 0.00 51 1008.0
20260504050126 7 174 9.7 16.1 0.00 0.00 0.00 51 1008.0
20260504050019 7 163 8.0 17.7 0.00 0.00 0.00 51 1008.0
20260504045829 7 209 8.0 14.5 0.00 0.00 0.00 51 1008.0
20260504045743 7 182 6.4 14.5 0.00 0.00 0.00 51 1008.0
20260504045614 7 194 4.8 12.9 0.00 0.00 0.00 51 1008.1
20260504045535 7 157 4.8 12.9 0.00 0.00 0.00 51 1008.1
20260504045407 7 218 8.0 12.9 0.00 0.00 0.00 51 1008.1
20260504045223 7 192 9.7 12.9 0.00 0.00 0.00 51 1008.1
20260504045126 7 178 6.4 12.9 0.00 0.00 0.00 50 1008.1
20260504045026 7 190 6.4 11.3 0.00 0.00 0.00 50 1008.1
20260504044831 6 262 3.2 9.7 0.00 0.00 0.00 51 1008.2
20260504044732 6 229 3.2 9.7 0.00 0.00 0.00 50 1008.2
20260504044635 7 201 3.2 9.7 0.00 0.00 0.00 50 1008.2
20260504044535 7 192 3.2 9.7 0.00 0.00 0.00 50 1008.2
20260504044417 6 207 3.2 9.7 0.00 0.00 0.00 50 1008.2
20260504044333 6 205 4.8 11.3 0.00 0.00 0.00 50 1008.1
20260504044207 6 212 4.8 11.3 0.00 0.00 0.00 50 1008.1
20260504044107 6 162 3.2 12.9 0.00 0.00 0.00 50 1008.0
20260504043931 6 214 4.8 12.9 0.00 0.00 0.00 50 1008.2
20260504043852 6 199 6.4 12.9 0.00 0.00 0.00 50 1008.1
20260504043633 6 180 6.4 12.9 0.00 0.00 0.00 49 1008.0
20260504043557 6 164 6.4 12.9 0.00 0.00 0.00 49 1008.0
20260504043441 6 199 4.8 12.9 0.00 0.00 0.00 49 1008.1
20260504043403 6 150 6.4 12.9 0.00 0.00 0.00 49 1008.1
20260504043336 6 211 6.4 12.9 0.00 0.00 0.00 49 1008.1
20260504043143 6 196 4.8 11.3 0.00 0.00 0.00 49 1008.1
20260504043044 6 173 4.8 11.3 0.00 0.00 0.00 48 1008.1
20260504042938 6 180 6.4 11.3 0.00 0.00 0.00 48 1008.2
20260504042901 6 212 6.4 11.3 0.00 0.00 0.00 48 1008.2
20260504042805 6 183 6.4 11.3 0.00 0.00 0.00 48 1008.2
20260504042727 6 166 6.4 11.3 0.00 0.00 0.00 48 1008.2
20260504042529 6 171 8.0 11.3 0.00 0.00 0.00 47 1008.2
20260504042432 6 157 6.4 11.3 0.00 0.00 0.00 46 1008.2
20260504042335 6 196 6.4 11.3 0.00 0.00 0.00 46 1008.3
20260504042242 6 171 4.8 8.0 0.00 0.00 0.00 45 1008.3
20260504042155 6 208 4.8 8.0 0.00 0.00 0.00 45 1008.2
20260504042025 6 184 4.8 8.0 0.00 0.00 0.00 44 1008.2
20260504041924 6 180 4.8 9.7 0.00 0.00 0.00 44 1008.2
20260504041755 6 164 4.8 12.9 0.00 0.00 0.00 42 1008.2
20260504041629 5 188 4.8 12.9 0.00 0.00 0.00 40 1008.2
20260504041512 5 164 4.8 12.9 0.00 0.00 0.00 39 1008.3
20260504041444 5 200 4.8 12.9 0.00 0.00 0.00 37 1008.3
20260504041407 5 179 4.8 12.9 0.00 0.00 0.00 37 1008.3
20260504041311 5 184 4.8 12.9 0.00 0.00 0.00 37 1008.3
20260504041233 5 210 4.8 12.9 0.00 0.00 0.00 37 1008.3
20260504041108 5 215 6.4 12.9 0.00 0.00 0.00 32 1008.3
20260504040923 5 211 4.8 12.9 0.00 0.00 0.00 25 1008.3
20260504040835 5 209 4.8 9.7 0.00 0.00 0.00 22 1008.2
20260504040754 4 199 6.4 9.7 0.00 0.00 0.00 18 1008.2
20260504040713 4 198 6.4 11.3 0.00 0.00 0.00 11 1008.3
20260504040616 4 223 8.0 11.3 0.00 0.00 0.00 4 1008.4
20260504040518 3 173 6.4 11.3 0.00 0.00 0.00 1 1008.4
20260504040440 3 169 4.8 11.3 0.00 0.00 0.00 1 1008.4
20260504040309 3 197 3.2 11.3 0.00 0.00 0.00 1 1008.4
20260504040224 3 173 3.2 11.3 0.00 0.00 0.00 1 1008.4
20260504040037 3 201 4.8 11.3 0.00 0.00 0.00 1 1008.4
20260504035951 2 188 4.8 11.3 0.00 0.00 0.00 1 1008.3
20260504035741 2 185 4.8 8.0 0.00 0.00 0.00 1 1008.3
20260504035636 2 165 3.2 6.4 0.00 0.00 0.00 1 1008.3
20260504035505 2 204 3.2 4.8 0.00 0.00 0.00 1 1008.3
20260504035427 2 194 3.2 4.8 0.00 0.00 0.00 1 1008.3
20260504035230 1 194 1.6 4.8 0.00 0.00 0.00 1 1008.3
20260504035152 1 194 0.0 1.6 0.00 0.00 0.00 1 1008.3
20260504035056 1 194 0.0 1.6 0.00 0.00 0.00 1 1008.3
20260504035017 1 194 0.0 1.6 0.00 0.00 0.00 1 1008.3
20260504034831 1 194 0.0 1.6 0.00 0.00 0.00 1 1008.4
20260504034724 1 194 0.0 1.6 0.00 0.00 0.00 1 1008.4
20260504034648 1 194 0.0 1.6 0.00 0.00 0.00 1 1008.4
20260504034551 1 194 0.0 1.6 0.00 0.00 0.00 1 1008.4
20260504034514 1 194 0.0 1.6 0.00 0.00 0.00 1 1008.4
20260504034330 1 194 0.0 0.0 0.00 0.00 0.00 1 1008.4
20260504034231 1 194 0.0 0.0 0.00 0.00 0.00 1 1008.3
20260504034134 1 194 0.0 0.0 0.00 0.00 0.00 1 1008.4
20260504034057 1 194 0.0 0.0 0.00 0.00 0.00 1 1008.4
20260504033957 1 194 0.0 0.0 0.00 0.00 0.00 1 1008.4
20260504033906 1 194 0.0 0.0 0.00 0.00 0.00 1 1008.3
20260504033828 1 194 0.0 0.0 0.00 0.00 0.00 1 1008.3
20260504033631 1 194 0.0 0.0 0.00 0.00 0.00 1 1008.3
20260504033534 1 194 0.0 0.0 0.00 0.00 0.00 1 1008.4
20260504033437 1 194 0.0 0.0 0.00 0.00 0.00 1 1008.3
20260504033400 1 194 0.0 0.0 0.00 0.00 0.00 1 1008.3
20260504033322 1 194 0.0 0.0 0.00 0.00 0.00 1 1008.4
20260504033124 1 194 0.0 0.0 0.00 0.00 0.00 1 1008.3
20260504033047 1 194 0.0 0.0 0.00 0.00 0.00 1 1008.3
20260504032935 1 194 0.0 0.0 0.00 0.00 0.00 1 1008.3
20260504032906 1 194 0.0 0.0 0.00 0.00 0.00 1 1008.2
20260504032737 1 194 0.0 0.0 0.00 0.00 0.00 1 1008.2
20260504032630 1 194 0.0 0.0 0.00 0.00 0.00 1 1008.2
20260504032500 1 194 0.0 0.0 0.00 0.00 0.00 1 1008.4
20260504032401 1 194 0.0 0.0 0.00 0.00 0.00 1 1008.4
20260504032223 1 194 0.0 0.0 0.00 0.00 0.00 1 1008.3
20260504032144 1 194 0.0 0.0 0.00 0.00 0.00 1 1008.3
20260504032026 1 194 0.0 0.0 0.00 0.00 0.00 1 1008.3
20260504031948 1 194 0.0 0.0 0.00 0.00 0.00 1 1008.3
20260504031729 1 194 0.0 0.0 0.00 0.00 0.00 1 1008.3
20260504031634 1 194 0.0 0.0 0.00 0.00 0.00 1 1008.3
20260504031537 1 194 0.0 0.0 0.00 0.00 0.00 1 1008.3
20260504031500 1 194 0.0 0.0 0.00 0.00 0.00 1 1008.3
20260504031421 1 194 0.0 0.0 0.00 0.00 0.00 1 1008.3
20260504031224 1 194 0.0 0.0 0.00 0.00 0.00 1 1008.3
20260504031146 1 194 0.0 0.0 0.00 0.00 0.00 1 1008.3
20260504031028 1 194 0.0 0.0 0.00 0.00 0.00 1 1008.3
20260504030951 1 194 0.0 0.0 0.00 0.00 0.00 1 1008.3
20260504030914 1 194 0.0 0.0 0.00 0.00 0.00 1 1008.3
20260504030756 1 194 0.0 0.0 0.00 0.00 0.00 1 1008.3
20260504030721 1 194 0.0 0.0 0.00 0.00 0.00 1 1008.3
20260504030526 1 194 0.0 0.0 0.00 0.00 0.00 1 1008.3
20260504030446 1 194 0.0 0.0 0.00 0.00 0.00 1 1008.3
20260504030326 1 194 0.0 0.0 0.00 0.00 0.00 1 1008.3
20260504030218 1 194 0.0 0.0 0.00 0.00 0.00 1 1008.3
20260504030028 1 194 0.0 0.0 0.00 0.00 0.00 1 1008.4
20260504025945 1 194 0.0 0.0 0.00 0.00 0.00 1 1008.4
20260504025816 1 194 0.0 0.0 0.00 0.00 0.00 1 1008.4
20260504025715 1 194 0.0 0.0 0.00 0.00 0.00 1 1008.4
20260504025536 1 194 0.0 0.0 0.00 0.00 0.00 1 1008.4
20260504025503 1 194 0.0 0.0 0.00 0.00 0.00 1 1008.4
20260504025325 1 194 0.0 0.0 0.00 0.00 0.00 1 1008.3
20260504025247 1 194 0.0 0.0 0.00 0.00 0.00 1 1008.3
20260504025207 1 194 0.0 0.0 0.00 0.00 0.00 1 1008.3
20260504025111 1 194 0.0 0.0 0.00 0.00 0.00 1 1008.3
20260504025034 1 194 0.0 0.0 0.00 0.00 0.00 1 1008.3
20260504024837 1 194 0.0 0.0 0.00 0.00 0.00 1 1008.4
20260504024738 1 194 0.0 0.0 0.00 0.00 0.00 1 1008.3
20260504024641 1 194 0.0 0.0 0.00 0.00 0.00 1 1008.3
20260504024550 1 194 0.0 0.0 0.00 0.00 0.00 1 1008.3
20260504024504 1 194 0.0 0.0 0.00 0.00 0.00 1 1008.4
20260504024312 1 194 0.0 0.0 0.00 0.00 0.00 1 1008.4
20260504024234 1 194 0.0 0.0 0.00 0.00 0.00 1 1008.4
20260504024037 1 194 0.0 0.0 0.00 0.00 0.00 1 1008.4
20260504023959 1 194 0.0 0.0 0.00 0.00 0.00 1 1008.4
20260504023823 1 194 0.0 0.0 0.00 0.00 0.00 1 1008.5
20260504023717 1 194 0.0 0.0 0.00 0.00 0.00 1 1008.4
20260504023527 1 194 0.0 0.0 0.00 0.00 0.00 1 1008.5
20260504023445 1 194 0.0 0.0 0.00 0.00 0.00 1 1008.5
20260504023315 1 194 0.0 0.0 0.00 0.00 0.00 1 1008.5
20260504023236 1 194 0.0 0.0 0.00 0.00 0.00 1 1008.5
20260504023058 1 194 0.0 0.0 0.00 0.00 0.00 1 1008.5
20260504023019 1 194 0.0 0.0 0.00 0.00 0.00 1 1008.5
20260504022823 1 194 0.0 0.0 0.00 0.00 0.00 1 1008.5
20260504022725 1 194 0.0 0.0 0.00 0.00 0.00 1 1008.5
20260504022629 1 194 0.0 0.0 0.00 0.00 0.00 1 1008.5
20260504022530 1 194 0.0 0.0 0.00 0.00 0.00 1 1008.6
20260504022454 1 194 0.0 0.0 0.00 0.00 0.00 1 1008.6
20260504022359 1 194 0.0 0.0 0.00 0.00 0.00 1 1008.5
20260504022321 1 194 0.0 0.0 0.00 0.00 0.00 1 1008.6
20260504022124 1 194 0.0 0.0 0.00 0.00 0.00 1 1008.6
20260504022026 1 194 0.0 0.0 0.00 0.00 0.00 1 1008.6
20260504021941 1 194 0.0 0.0 0.00 0.00 0.00 1 1008.6
20260504021842 1 194 0.0 0.0 0.00 0.00 0.00 1 1008.5
20260504021712 1 194 0.0 0.0 0.00 0.00 0.00 1 1008.6
20260504021607 1 194 0.0 0.0 0.00 0.00 0.00 1 1008.6
20260504021437 1 194 0.0 0.0 0.00 0.00 0.00 1 1008.6
20260504021338 1 194 0.0 0.0 0.00 0.00 0.00 1 1008.6
20260504021219 1 194 0.0 3.2 0.00 0.00 0.00 1 1008.6
20260504021138 1 194 0.0 3.2 0.00 0.00 0.00 1 1008.6
20260504021009 1 194 0.0 3.2 0.00 0.00 0.00 1 1008.6
20260504020930 1 194 0.0 3.2 0.00 0.00 0.00 1 1008.6
20260504020732 1 194 0.0 3.2 0.00 0.00 0.00 1 1008.6
20260504020656 1 194 0.0 3.2 0.00 0.00 0.00 1 1008.6
20260504020559 1 194 0.0 3.2 0.00 0.00 0.00 1 1008.6
20260504020500 1 194 0.0 3.2 0.00 0.00 0.00 1 1008.6
20260504020421 1 194 0.0 1.6 0.00 0.00 0.00 1 1008.6
20260504020223 1 194 0.0 0.0 0.00 0.00 0.00 1 1008.6
20260504020145 1 194 0.0 0.0 0.00 0.00 0.00 1 1008.6
20260504020028 1 194 0.0 0.0 0.00 0.00 0.00 1 1008.6
20260504015931 1 194 0.0 0.0 0.00 0.00 0.00 1 1008.6
20260504015855 1 194 0.0 0.0 0.00 0.00 0.00 1 1008.6
20260504015759 1 194 0.0 0.0 0.00 0.00 0.00 1 1008.6
20260504015720 1 194 0.0 0.0 0.00 0.00 0.00 1 1008.6
20260504015523 1 194 0.0 0.0 0.00 0.00 0.00 1 1008.6
20260504015425 1 194 0.0 0.0 0.00 0.00 0.00 1 1008.6
20260504015328 1 194 0.0 0.0 0.00 0.00 0.00 1 1008.6
20260504015250 2 194 0.0 0.0 0.00 0.00 0.00 1 1008.6
20260504015211 2 194 0.0 0.0 0.00 0.00 0.00 1 1008.6
20260504015114 2 194 0.0 0.0 0.00 0.00 0.00 1 1008.8
20260504015040 2 194 0.0 0.0 0.00 0.00 0.00 1 1008.7
20260504014911 2 194 0.0 1.6 0.00 0.00 0.00 1 1008.7
20260504014824 2 194 0.0 1.6 0.00 0.00 0.00 1 1008.8
20260504014635 2 194 0.0 1.6 0.00 0.00 0.00 1 1008.7
20260504014552 2 194 0.0 1.6 0.00 0.00 0.00 1 1008.8
20260504014414 2 194 0.0 1.6 0.00 0.00 0.00 1 1008.8
20260504014350 2 194 0.0 1.6 0.00 0.00 0.00 1 1008.8
20260504014311 2 194 0.0 1.6 0.00 0.00 0.00 1 1008.7
20260504014155 2 194 0.0 1.6 0.00 0.00 0.00 1 1008.8
20260504014026 2 194 0.0 1.6 0.00 0.00 0.00 1 1008.7
20260504013859 2 194 0.0 1.6 0.00 0.00 0.00 1 1008.7
20260504013802 2 194 0.0 1.6 0.00 0.00 0.00 1 1008.7
20260504013717 2 194 0.0 0.0 0.00 0.00 0.00 1 1008.7
20260504013546 2 194 0.0 1.6 0.00 0.00 0.00 1 1008.7
20260504013448 2 194 0.0 1.6 0.00 0.00 0.00 1 1008.7
20260504013323 2 194 0.0 1.6 0.00 0.00 0.00 1 1008.7
20260504013226 2 194 0.0 1.6 0.00 0.00 0.00 1 1008.7
20260504013146 2 194 0.0 1.6 0.00 0.00 0.00 1 1008.7
20260504013017 2 194 0.0 1.6 0.00 0.00 0.00 1 1008.7
20260504012932 2 194 0.0 1.6 0.00 0.00 0.00 1 1008.6
20260504012751 2 194 0.0 1.6 0.00 0.00 0.00 1 1008.6
20260504012603 2 194 0.0 0.0 0.00 0.00 0.00 1 1008.6
20260504012505 2 194 0.0 0.0 0.00 0.00 0.00 1 1008.6
20260504012328 2 194 0.0 0.0 0.00 0.00 0.00 1 1008.6
20260504012251 2 194 0.0 0.0 0.00 0.00 0.00 1 1008.6
20260504012207 2 194 0.0 0.0 0.00 0.00 0.00 1 1008.5
20260504012017 2 194 0.0 0.0 0.00 0.00 0.00 1 1008.6
20260504011919 2 194 0.0 0.0 0.00 0.00 0.00 1 1008.5
20260504011821 2 194 0.0 0.0 0.00 0.00 0.00 1 1008.5
20260504011743 2 194 0.0 0.0 0.00 0.00 0.00 1 1008.5
20260504011612 3 194 0.0 0.0 0.00 0.00 0.00 1 1008.5
20260504011527 3 194 0.0 0.0 0.00 0.00 0.00 1 1008.5
20260504011357 3 194 0.0 1.6 0.00 0.00 0.00 1 1008.4
20260504011301 3 194 0.0 1.6 0.00 0.00 0.00 1 1008.4
20260504011123 3 194 0.0 1.6 0.00 0.00 0.00 1 1008.5
20260504011043 3 194 0.0 1.6 0.00 0.00 0.00 1 1008.5
20260504010916 3 194 0.0 1.6 0.00 0.00 0.00 1 1008.4
20260504010831 3 194 0.0 1.6 0.00 0.00 0.00 1 1008.4
20260504010642 3 194 0.0 1.6 0.00 0.00 0.00 1 1008.4
20260504010526 3 194 0.0 1.6 0.00 0.00 0.00 1 1008.3
20260504010453 3 194 0.0 1.6 0.00 0.00 0.00 1 1008.3
20260504010336 3 194 0.0 1.6 0.00 0.00 0.00 2 1008.3
20260504010302 3 194 0.0 1.6 0.00 0.00 0.00 3 1008.3
20260504010045 3 194 0.0 0.0 0.00 0.00 0.00 4 1008.3
20260504010005 3 194 0.0 0.0 0.00 0.00 0.00 5 1008.3
20260504005910 3 194 0.0 0.0 0.00 0.00 0.00 6 1008.3
20260504005832 3 194 0.0 0.0 0.00 0.00 0.00 6 1008.3
20260504005636 3 194 0.0 0.0 0.00 0.00 0.00 9 1008.2
20260504005538 3 194 0.0 1.6 0.00 0.00 0.00 9 1008.2
20260504005441 3 194 0.0 1.6 0.00 0.00 0.00 10 1008.2
20260504005344 3 194 0.0 1.6 0.00 0.00 0.00 10 1008.2
20260504005308 3 194 0.0 1.6 0.00 0.00 0.00 11 1008.2
20260504005210 3 194 0.0 1.6 0.00 0.00 0.00 11 1008.1
20260504005133 3 194 0.0 1.6 0.00 0.00 0.00 12 1008.1
20260504004937 3 194 0.0 1.6 0.00 0.00 0.00 13 1008.2
20260504004838 3 194 0.0 1.6 0.00 0.00 0.00 13 1008.1
20260504004723 3 194 0.0 1.6 0.00 0.00 0.00 14 1008.1
20260504004654 3 194 0.0 0.0 0.00 0.00 0.00 15 1008.1
20260504004437 4 194 0.0 0.0 0.00 0.00 0.00 18 1008.2
20260504004358 4 194 0.0 0.0 0.00 0.00 0.00 18 1008.2
20260504004234 4 194 0.0 0.0 0.00 0.00 0.00 18 1008.1
20260504004156 4 194 0.0 0.0 0.00 0.00 0.00 18 1008.1
20260504004039 4 194 0.0 0.0 0.00 0.00 0.00 19 1008.2
20260504003958 4 194 0.0 0.0 0.00 0.00 0.00 19 1008.2
20260504003839 4 194 0.0 0.0 0.00 0.00 0.00 21 1008.1
20260504003758 4 194 0.0 0.0 0.00 0.00 0.00 22 1008.1
20260504003700 4 194 0.0 0.0 0.00 0.00 0.00 23 1008.2
20260504003618 4 194 0.0 0.0 0.00 0.00 0.00 23 1008.1
20260504003446 5 194 0.0 0.0 0.00 0.00 0.00 24 1008.1
20260504003322 5 194 0.0 0.0 0.00 0.00 0.00 25 1008.1
20260504003234 5 194 0.0 0.0 0.00 0.00 0.00 25 1008.1
20260504003133 5 194 0.0 0.0 0.00 0.00 0.00 26 1008.1
20260504003034 5 194 0.0 0.0 0.00 0.00 0.00 26 1008.1
20260504002952 5 194 0.0 0.0 0.00 0.00 0.00 26 1008.1
20260504002818 5 194 0.0 0.0 0.00 0.00 0.00 27 1008.1
20260504002729 5 194 0.0 0.0 0.00 0.00 0.00 28 1008.1
20260504002559 5 194 0.0 0.0 0.00 0.00 0.00 29 1008.1
20260504002443 5 194 0.0 0.0 0.00 0.00 0.00 30 1008.1
20260504002339 5 194 0.0 0.0 0.00 0.00 0.00 30 1008.1
20260504002304 5 194 0.0 0.0 0.00 0.00 0.00 31 1008.1
20260504002206 5 194 0.0 0.0 0.00 0.00 0.00 32 1008.1
20260504002127 5 194 0.0 0.0 0.00 0.00 0.00 32 1008.1
20260504001930 5 194 0.0 0.0 0.00 0.00 0.00 33 1008.1
20260504001842 5 194 0.0 0.0 0.00 0.00 0.00 34 1008.0
20260504001723 6 194 0.0 0.0 0.00 0.00 0.00 35 1008.1
20260504001646 6 194 0.0 0.0 0.00 0.00 0.00 35 1008.1
20260504001602 6 194 0.0 0.0 0.00 0.00 0.00 36 1008.1
20260504001411 6 194 0.0 0.0 0.00 0.00 0.00 36 1008.1
20260504001315 6 194 0.0 0.0 0.00 0.00 0.00 36 1008.1
20260504001139 6 194 0.0 0.0 0.00 0.00 0.00 37 1008.1
20260504001041 6 194 0.0 0.0 0.00 0.00 0.00 37 1008.1
20260504000924 6 194 0.0 0.0 0.00 0.00 0.00 37 1008.1
20260504000845 6 194 0.0 0.0 0.00 0.00 0.00 37 1008.1
20260504000709 6 194 0.0 0.0 0.00 0.00 0.00 37 1008.0
20260504000632 6 194 0.0 0.0 0.00 0.00 0.00 37 1008.1
20260504000416 6 194 0.0 0.0 0.00 0.00 0.00 37 1008.0
20260504000330 6 194 0.0 0.0 0.00 0.00 0.00 36 1008.0
20260504000234 6 194 0.0 0.0 0.00 0.00 0.00 36 1008.0
20260504000153 6 194 0.0 1.6 0.00 0.00 0.00 36 1008.0
20260504000025 6 194 0.0 1.6 0.00 0.00 0.00 37 1008.0
20260503235918 7 194 0.0 1.6 0.00 0.05 0.00 36 1007.9
20260503235728 7 194 0.0 3.2 0.00 0.05 0.00 37 1008.0
20260503235640 7 194 0.0 3.2 0.00 0.05 0.00 37 1008.0
20260503235544 7 194 0.0 3.2 0.00 0.05 0.00 37 1008.0
20260503235438 7 194 0.0 3.2 0.00 0.05 0.00 38 1008.0
20260503235337 7 194 0.0 3.2 0.00 0.05 0.00 39 1008.0
20260503235245 7 194 0.0 3.2 0.00 0.05 0.00 41 1007.9
20260503235125 7 194 0.0 3.2 0.00 0.05 0.00 41 1007.9
20260503235027 7 194 0.0 3.2 0.00 0.05 0.00 41 1007.9
20260503234949 7 194 0.0 3.2 0.00 0.05 0.00 41 1007.9
20260503234821 7 194 0.0 3.2 0.00 0.05 0.00 41 1007.9
20260503234736 7 194 0.0 3.2 0.00 0.05 0.00 41 1007.9
20260503234527 7 194 1.6 3.2 0.00 0.05 0.00 43 1007.9
20260503234421 7 194 1.6 3.2 0.00 0.05 0.00 43 1007.9
20260503234345 7 194 1.6 3.2 0.00 0.05 0.00 43 1007.9
20260503234244 7 194 1.6 3.2 0.00 0.05 0.00 43 1007.9
20260503234206 8 194 1.6 3.2 0.00 0.05 0.00 44 1007.9
20260503234106 8 194 1.6 3.2 0.00 0.05 0.00 44 1007.9
20260503234011 8 194 1.6 3.2 0.00 0.05 0.00 43 1007.8
20260503233932 8 194 1.6 3.2 0.00 0.05 0.00 43 1007.8
20260503233735 8 194 0.0 0.0 0.00 0.05 0.00 40 1007.9
20260503233636 8 194 0.0 0.0 0.00 0.05 0.00 38 1007.8
20260503233530 8 194 0.0 0.0 0.00 0.05 0.00 40 1007.9
20260503233452 8 194 0.0 0.0 0.00 0.05 0.00 40 1007.9
20260503233407 8 194 0.0 0.0 0.00 0.05 0.00 42 1007.9
20260503233331 8 194 0.0 0.0 0.00 0.05 0.00 44 1007.8
20260503233231 8 194 0.0 0.0 0.00 0.05 0.00 47 1007.8
20260503233126 8 194 0.0 0.0 0.00 0.05 0.00 47 1007.8
20260503232938 8 194 0.0 0.0 0.00 0.05 0.00 49 1007.8
20260503232852 8 194 0.0 0.0 0.00 0.05 0.00 49 1007.8
20260503232722 8 194 0.0 0.0 0.00 0.05 0.00 50 1007.8
20260503232643 8 194 0.0 0.0 0.00 0.05 0.00 51 1007.8
20260503232507 8 194 0.0 0.0 0.00 0.05 0.00 52 1007.8
20260503232429 8 194 0.0 0.0 0.00 0.05 0.00 52 1007.8
20260503232239 8 194 0.0 0.0 0.00 0.05 0.00 52 1007.7
20260503232135 8 194 0.0 0.0 0.00 0.05 0.00 52 1007.7
20260503232059 8 194 0.0 0.0 0.00 0.05 0.00 52 1007.7
20260503232004 9 194 0.0 0.0 0.00 0.05 0.00 52 1007.7
20260503231925 9 194 0.0 0.0 0.00 0.05 0.00 52 1007.7
20260503231754 9 194 0.0 0.0 0.00 0.05 0.00 52 1007.7
20260503231647 9 194 0.0 0.0 0.00 0.05 0.00 52 1007.7
20260503231517 9 194 0.0 0.0 0.00 0.05 0.00 52 1007.6
20260503231439 9 194 0.0 0.0 0.00 0.05 0.00 52 1007.7
20260503231241 9 194 0.0 0.0 0.00 0.05 0.00 53 1007.7
20260503231141 9 194 0.0 0.0 0.00 0.05 0.00 53 1007.7
20260503231026 9 194 0.0 0.0 0.00 0.05 0.00 53 1007.7
20260503230951 9 194 0.0 0.0 0.00 0.05 0.00 53 1007.7
20260503230822 9 194 0.0 0.0 0.00 0.05 0.00 53 1007.7
20260503230714 9 194 0.0 0.0 0.00 0.05 0.00 53 1007.7
20260503230526 9 194 0.0 0.0 0.00 0.05 0.00 53 1007.7
20260503230439 9 194 0.0 0.0 0.00 0.05 0.00 51 1007.7
20260503230308 9 194 0.0 3.2 0.00 0.05 0.00 49 1007.7
20260503230208 9 194 0.0 3.2 0.00 0.05 0.00 48 1007.7
20260503230052 9 194 0.0 3.2 0.00 0.05 0.00 50 1007.7
20260503225931 9 194 0.0 3.2 0.00 0.08 0.00 49 1007.7
20260503225834 9 194 0.0 3.2 0.00 0.08 0.00 48 1007.7
20260503225757 9 194 0.0 3.2 0.00 0.08 0.00 49 1007.7
20260503225724 9 194 0.0 3.2 0.00 0.08 0.00 49 1007.7
20260503225527 9 194 1.6 3.2 0.00 0.08 0.00 49 1007.7
20260503225450 9 194 1.6 3.2 0.00 0.08 0.00 50 1007.7
20260503225336 9 194 0.0 1.6 0.00 0.08 0.00 50 1007.7
20260503225257 9 194 0.0 1.6 0.00 0.08 0.00 47 1007.7
20260503225108 9 194 0.0 0.0 0.00 0.08 0.00 46 1007.7
20260503224922 9 194 0.0 0.0 0.00 0.08 0.00 47 1007.7
20260503224825 9 194 0.0 1.6 0.00 0.08 0.00 45 1007.7
20260503224747 9 194 0.0 1.6 0.00 0.08 0.00 45 1007.7
20260503224713 9 194 0.0 1.6 0.00 0.08 0.00 46 1007.7
20260503224617 9 194 0.0 1.6 0.00 0.08 0.00 48 1007.8
20260503224517 9 194 0.0 1.6 0.00 0.08 0.00 48 1007.8
20260503224347 9 194 0.0 3.2 0.00 0.08 0.00 48 1007.8
20260503224240 9 194 0.0 3.2 0.00 0.08 0.00 48 1007.8
20260503224048 9 194 0.0 3.2 0.00 0.08 0.00 48 1007.8
20260503223951 9 194 0.0 3.2 0.00 0.08 0.00 48 1007.8
20260503223908 9 194 0.0 3.2 0.00 0.08 0.00 47 1007.8
20260503223646 9 194 1.6 4.8 0.00 0.08 0.00 47 1007.8
20260503223547 9 194 1.6 4.8 0.00 0.08 0.00 47 1007.8
20260503223509 9 194 0.0 4.8 0.00 0.08 0.00 46 1007.8
20260503223330 9 194 1.6 6.4 0.00 0.08 0.00 46 1007.8
20260503223225 9 194 1.6 6.4 0.00 0.08 0.00 46 1007.8
20260503223150 9 194 1.6 6.4 0.00 0.08 0.00 46 1007.8
20260503223121 9 194 1.6 6.4 0.00 0.08 0.00 47 1007.8
20260503223037 9 194 1.6 6.4 0.00 0.08 0.00 47 1007.8
20260503222907 9 194 3.2 6.4 0.00 0.08 0.00 45 1007.7
20260503222818 9 194 3.2 6.4 0.00 0.08 0.00 45 1007.7
20260503222622 9 184 3.2 6.4 0.00 0.08 0.00 46 1007.7
20260503222545 9 203 3.2 6.4 0.00 0.08 0.00 46 1007.7
20260503222450 9 223 1.6 4.8 0.00 0.08 0.00 46 1007.7
20260503222347 9 261 1.6 4.8 0.00 0.08 0.00 47 1007.7
20260503222218 10 261 1.6 4.8 0.00 0.08 0.00 46 1007.7
20260503222122 10 261 1.6 4.8 0.00 0.08 0.00 46 1007.7
20260503222006 10 261 0.0 3.2 0.00 0.08 0.00 46 1007.8
20260503221928 10 344 0.0 1.6 0.00 0.08 0.00 46 1007.7
20260503221732 10 344 0.0 3.2 0.00 0.08 0.00 47 1007.7
20260503221635 10 344 0.0 3.2 0.00 0.08 0.00 47 1007.8
20260503221539 10 344 0.0 3.2 0.00 0.08 0.00 47 1007.8
20260503221501 10 344 0.0 3.2 0.00 0.08 0.00 49 1007.8
20260503221330 10 344 0.0 4.8 0.00 0.08 0.00 46 1007.8
20260503221225 10 344 0.0 4.8 0.00 0.08 0.00 46 1007.7
20260503221054 10 344 1.6 6.4 0.00 0.08 0.00 44 1007.7
20260503220931 10 344 1.6 6.4 0.00 0.08 0.00 44 1007.7
20260503220859 10 344 1.6 6.4 0.00 0.08 0.00 46 1007.7
20260503220801 10 29 1.6 6.4 0.00 0.08 0.00 47 1007.7
20260503220644 10 29 1.6 6.4 0.00 0.08 0.00 47 1007.7
20260503220537 10 29 3.2 6.4 0.00 0.08 0.00 46 1007.6
20260503220500 10 29 3.2 6.4 0.00 0.08 0.00 46 1007.6
20260503220405 10 360 4.8 6.4 0.00 0.08 0.00 47 1007.6
20260503220326 10 338 4.8 6.4 0.00 0.08 0.00 47 1007.6
20260503220128 10 348 3.2 6.4 0.00 0.08 0.00 48 1007.7
20260503220029 10 298 1.6 4.8 0.00 0.08 0.00 47 1007.6
20260503215936 10 298 0.0 4.8 0.00 0.10 0.00 46 1007.7
20260503215858 10 206 0.0 3.2 0.00 0.10 0.00 45 1007.7
20260503215819 10 206 0.0 3.2 0.00 0.10 0.00 45 1007.6
20260503215702 10 206 0.0 4.8 0.00 0.10 0.00 45 1007.6
20260503215624 10 217 0.0 4.8 0.00 0.10 0.00 46 1007.7
20260503215429 10 217 1.6 4.8 0.00 0.10 0.00 48 1007.6
20260503215331 10 217 1.6 4.8 0.00 0.10 0.00 48 1007.6
20260503215234 10 217 1.6 4.8 0.00 0.10 0.00 47 1007.6
20260503215156 10 217 0.0 4.8 0.00 0.10 0.00 47 1007.6
20260503215119 10 217 0.0 4.8 0.00 0.10 0.00 46 1007.7
20260503214946 10 217 1.6 6.4 0.00 0.10 0.00 45 1007.7
20260503214844 10 217 3.2 6.4 0.00 0.10 0.00 45 1007.7
20260503214805 10 217 3.2 6.4 0.00 0.10 0.00 45 1007.7
20260503214708 10 273 1.6 6.4 0.00 0.10 0.00 47 1007.7
20260503214630 10 273 1.6 6.4 0.00 0.10 0.00 47 1007.7
20260503214435 10 317 0.0 6.4 0.00 0.10 0.00 45 1007.7
20260503214336 10 317 1.6 6.4 0.00 0.10 0.00 45 1007.7
20260503214240 10 317 3.2 6.4 0.00 0.10 0.00 45 1007.7
20260503214201 10 317 3.2 6.4 0.00 0.10 0.00 45 1007.7
20260503214123 10 323 3.2 6.4 0.00 0.10 0.00 45 1007.7
20260503213930 10 336 4.8 6.4 0.00 0.10 0.00 45 1007.7
20260503213853 10 330 4.8 6.4 0.00 0.10 0.00 45 1007.7
20260503213755 10 330 3.2 6.4 0.00 0.10 0.00 46 1007.7
20260503213637 10 319 3.2 4.8 0.00 0.10 0.00 45 1007.6
20260503213540 10 319 3.2 4.8 0.00 0.10 0.00 46 1007.7
20260503213501 10 319 1.6 4.8 0.00 0.10 0.00 47 1007.7
20260503213424 10 296 1.6 4.8 0.00 0.10 0.00 47 1007.6
20260503213254 10 206 1.6 4.8 0.00 0.10 0.00 47 1007.6
20260503213116 10 217 0.0 6.4 0.00 0.10 0.00 47 1007.6
20260503213037 10 217 0.0 6.4 0.00 0.10 0.00 46 1007.6
20260503212845 10 217 3.2 6.4 0.00 0.10 0.00 45 1007.6
20260503212739 10 217 3.2 6.4 0.00 0.10 0.00 45 1007.6
20260503212613 10 242 1.6 6.4 0.00 0.10 0.00 45 1007.6
20260503212536 10 298 1.6 6.4 0.00 0.10 0.00 44 1007.6
20260503212338 10 240 4.8 6.4 0.00 0.10 0.00 45 1007.6
20260503212300 10 232 4.8 6.4 0.00 0.10 0.00 45 1007.6
20260503212141 10 219 3.2 6.4 0.00 0.10 0.00 44 1007.6
20260503212104 10 198 3.2 6.4 0.00 0.10 0.00 45 1007.6
20260503212024 10 257 3.2 6.4 0.00 0.10 0.00 46 1007.6
20260503211827 10 10 3.2 6.4 0.00 0.10 0.00 46 1007.6
20260503211748 10 10 1.6 6.4 0.00 0.10 0.00 47 1007.6
20260503211632 10 326 0.0 4.8 0.00 0.10 0.00 46 1007.6
20260503211559 10 326 1.6 4.8 0.00 0.10 0.00 47 1007.6
20260503211521 10 326 1.6 4.8 0.00 0.10 0.00 47 1007.6
20260503211323 10 326 1.6 4.8 0.00 0.10 0.00 48 1007.5
20260503211243 10 326 1.6 4.8 0.00 0.10 0.00 47 1007.5
20260503211126 10 325 1.6 4.8 0.00 0.10 0.00 45 1007.5
20260503211047 10 325 3.2 4.8 0.00 0.10 0.00 45 1007.5
20260503210923 10 325 3.2 4.8 0.00 0.10 0.00 45 1007.6
20260503210817 10 325 1.6 4.8 0.00 0.10 0.00 47 1007.6
20260503210753 10 325 1.6 4.8 0.00 0.10 0.00 48 1007.6
20260503210534 10 306 1.6 4.8 0.00 0.10 0.00 47 1007.6
20260503210457 10 306 1.6 4.8 0.00 0.10 0.00 46 1007.6
20260503210400 10 306 3.2 4.8 0.00 0.10 0.00 46 1007.6
20260503210323 10 293 1.6 4.8 0.00 0.10 0.00 47 1007.6
20260503210126 10 334 0.0 4.8 0.00 0.10 0.00 49 1007.6
20260503210029 10 334 1.6 4.8 0.00 0.10 0.00 48 1007.6
20260503205931 10 331 1.6 4.8 0.00 0.10 0.00 48 1007.5
20260503205853 10 338 1.6 4.8 0.00 0.10 0.00 47 1007.5
20260503205815 10 317 1.6 4.8 0.00 0.10 0.00 47 1007.6
20260503205623 10 317 1.6 4.8 0.00 0.10 0.00 48 1007.6
20260503205527 9 317 1.6 4.8 0.00 0.10 0.00 47 1007.6
20260503205429 9 319 1.6 6.4 0.00 0.10 0.00 47 1007.6
20260503205352 9 319 3.2 9.7 0.00 0.10 0.00 47 1007.6
20260503205312 9 333 3.2 9.7 0.00 0.10 0.00 48 1007.6
20260503205217 9 87 1.6 9.7 0.00 0.10 0.00 47 1007.6
20260503205138 9 281 0.0 9.7 0.00 0.10 0.00 47 1007.6
20260503205009 9 302 1.6 9.7 0.00 0.10 0.00 47 1007.7
20260503204925 9 309 1.6 9.7 0.00 0.10 0.00 46 1007.6
20260503204723 9 342 3.2 9.7 0.00 0.10 0.00 46 1007.7
20260503204641 9 342 4.8 14.5 0.00 0.10 0.00 46 1007.7
20260503204511 9 322 4.8 14.5 0.00 0.10 0.00 47 1007.7
20260503204434 9 325 4.8 14.5 0.00 0.10 0.00 47 1007.6
20260503204236 9 329 3.2 14.5 0.00 0.10 0.00 48 1007.6
20260503204159 9 331 3.2 14.5 0.00 0.10 0.00 47 1007.6
20260503204023 9 332 6.4 14.5 0.00 0.10 0.00 46 1007.7
20260503203937 9 348 8.0 14.5 0.00 0.10 0.00 46 1007.7
20260503203726 9 9 6.4 12.9 0.00 0.10 0.00 46 1007.6
20260503203641 9 355 3.2 16.1 0.00 0.10 0.00 47 1007.6
20260503203453 9 313 3.2 16.1 0.00 0.10 0.00 48 1007.6
20260503203355 9 304 3.2 16.1 0.00 0.10 0.00 48 1007.6
20260503203316 9 296 4.8 16.1 0.00 0.10 0.00 47 1007.6
20260503203138 9 321 8.0 16.1 0.00 0.10 0.00 46 1007.6
20260503203100 9 340 6.4 16.1 0.00 0.10 0.00 46 1007.6
20260503203016 9 331 6.4 16.1 0.00 0.10 0.00 47 1007.6
20260503202734 9 355 8.0 14.5 0.00 0.10 0.00 48 1007.7
20260503202635 9 327 8.0 14.5 0.00 0.10 0.00 47 1007.7
20260503202437 9 311 8.0 14.5 0.00 0.10 0.00 47 1007.7
20260503202400 9 347 8.0 14.5 0.00 0.10 0.00 48 1007.7
20260503202247 9 336 9.7 14.5 0.00 0.10 0.00 48 1007.7
20260503202149 9 333 9.7 14.5 0.00 0.10 0.00 48 1007.7
20260503202025 9 338 9.7 14.5 0.00 0.10 0.00 46 1007.8
20260503201928 9 337 9.7 14.5 0.00 0.10 0.00 47 1007.8
20260503201850 9 331 9.7 14.5 0.00 0.10 0.00 46 1007.8
20260503201811 9 347 11.3 14.5 0.00 0.10 0.00 46 1007.8
20260503201632 10 355 9.7 14.5 0.00 0.10 0.00 47 1007.8
20260503201555 10 309 8.0 14.5 0.00 0.10 0.00 47 1007.8
20260503201519 10 338 6.4 14.5 0.00 0.10 0.00 47 1007.8
20260503201343 10 348 4.8 14.5 0.00 0.10 0.00 46 1007.8
20260503201244 10 360 6.4 14.5 0.00 0.10 0.00 46 1007.8
20260503201147 10 348 6.4 14.5 0.00 0.10 0.00 47 1007.8
20260503201108 10 346 6.4 14.5 0.00 0.10 0.00 47 1007.8
20260503201007 10 5 6.4 14.5 0.00 0.10 0.00 47 1007.8
20260503200910 10 355 8.0 14.5 0.00 0.10 0.00 47 1007.8
20260503200832 10 327 8.0 14.5 0.00 0.10 0.00 48 1007.7
20260503200636 10 27 3.2 12.9 0.00 0.10 0.00 48 1007.7
20260503200538 10 348 6.4 12.9 0.00 0.10 0.00 49 1007.7
20260503200422 10 350 6.4 12.9 0.00 0.10 0.00 47 1007.8
20260503200348 10 53 6.4 11.3 0.00 0.10 0.00 48 1007.9
20260503200230 10 24 6.4 9.7 0.00 0.10 0.00 48 1007.9
20260503200153 10 329 6.4 9.7 0.00 0.10 0.00 48 1007.9
20260503200112 10 349 6.4 9.7 0.00 0.10 0.00 48 1007.9
20260503195922 10 315 4.8 9.7 0.00 0.10 0.00 49 1007.9
20260503195836 10 348 4.8 12.9 0.00 0.10 0.00 48 1008.0
20260503195705 10 339 6.4 14.5 0.00 0.10 0.00 49 1008.0
20260503195627 9 340 4.8 14.5 0.00 0.10 0.00 48 1007.9
20260503195429 9 346 4.8 14.5 0.00 0.10 0.00 47 1008.0
20260503195355 9 317 6.4 14.5 0.00 0.10 0.00 49 1008.0
20260503195237 9 205 4.8 16.1 0.00 0.10 0.00 48 1008.0
20260503195204 9 224 4.8 16.1 0.00 0.10 0.00 48 1008.0
20260503195118 9 271 6.4 16.1 0.00 0.10 0.00 48 1008.0
20260503194948 9 319 6.4 16.1 0.00 0.10 0.00 51 1008.0
20260503194850 9 325 4.8 16.1 0.00 0.10 0.00 47 1008.0
20260503194804 9 14 1.6 16.1 0.00 0.10 0.00 48 1008.0
20260503194634 9 304 6.4 16.1 0.00 0.10 0.00 48 1008.1
20260503194535 9 324 8.0 16.1 0.00 0.10 0.00 48 1008.2
20260503194406 9 325 4.8 8.0 0.00 0.10 0.00 48 1008.2
20260503194240 9 317 3.2 8.0 0.00 0.10 0.00 48 1008.2
20260503194123 9 274 3.2 8.0 0.00 0.10 0.00 50 1008.2
20260503194046 9 257 3.2 8.0 0.00 0.10 0.00 50 1008.2
20260503194012 9 284 3.2 8.0 0.00 0.10 0.00 49 1008.2
20260503193915 9 321 3.2 8.0 0.00 0.10 0.00 49 1008.2
20260503193838 9 311 3.2 8.0 0.00 0.10 0.00 50 1008.2
20260503193707 9 232 1.6 8.0 0.00 0.10 0.00 49 1008.2
20260503193559 9 232 3.2 8.0 0.00 0.10 0.00 48 1008.2
20260503193430 9 217 3.2 14.5 0.00 0.10 0.00 50 1008.3
20260503193329 9 234 1.6 14.5 0.00 0.10 0.00 51 1008.2
20260503193132 8 247 3.2 14.5 0.00 0.10 0.00 49 1008.3
20260503193054 8 226 4.8 14.5 0.00 0.10 0.00 49 1008.3
20260503192937 9 240 4.8 16.1 0.00 0.10 0.00 49 1008.3
20260503192900 8 286 4.8 16.1 0.00 0.10 0.00 49 1008.3
20260503192825 9 13 4.8 16.1 0.00 0.10 0.00 48 1008.4
20260503192627 9 304 6.4 16.1 0.00 0.10 0.00 48 1008.4
20260503192550 9 331 6.4 16.1 0.00 0.10 0.00 48 1008.4
20260503192452 9 290 4.8 16.1 0.00 0.10 0.00 49 1008.4
20260503192353 9 277 4.8 16.1 0.00 0.10 0.00 50 1008.4
20260503192314 9 266 6.4 16.1 0.00 0.10 0.00 49 1008.3
20260503192218 9 286 8.0 16.1 0.00 0.10 0.00 48 1008.4
20260503192120 9 216 8.0 16.1 0.00 0.10 0.00 48 1008.3
20260503191923 9 314 3.2 12.9 0.00 0.10 0.00 49 1008.4
20260503191825 9 310 6.4 12.9 0.00 0.10 0.00 49 1008.4
20260503191732 9 313 4.8 12.9 0.00 0.10 0.00 49 1008.4
20260503191653 9 315 3.2 12.9 0.00 0.10 0.00 49 1008.4
20260503191615 9 184 4.8 9.7 0.00 0.10 0.00 50 1008.4
20260503191516 9 306 4.8 9.7 0.00 0.10 0.00 50 1008.4
20260503191419 8 330 6.4 9.7 0.00 0.10 0.00 50 1008.4
20260503191340 8 337 6.4 12.9 0.00 0.10 0.00 51 1008.4
20260503191210 8 341 4.8 12.9 0.00 0.10 0.00 51 1008.5
20260503191124 8 327 3.2 12.9 0.00 0.10 0.00 51 1008.5
20260503190935 8 300 3.2 12.9 0.00 0.10 0.00 50 1008.5
20260503190850 8 355 4.8 12.9 0.00 0.10 0.00 49 1008.5
20260503190719 8 311 8.0 14.5 0.00 0.10 0.00 50 1008.5
20260503190642 8 341 4.8 17.7 0.00 0.10 0.00 50 1008.6
20260503190427 8 17 4.8 17.7 0.00 0.10 0.00 50 1008.6
20260503190349 8 308 4.8 17.7 0.00 0.10 0.00 50 1008.6
20260503190253 8 336 4.8 17.7 0.00 0.10 0.00 50 1008.6
20260503190214 8 256 4.8 17.7 0.00 0.10 0.00 50 1008.6
20260503190025 8 319 9.7 17.7 0.00 0.10 0.00 49 1008.6
20260503185929 8 338 12.9 17.7 0.00 0.10 0.00 49 1008.6
20260503185852 8 342 11.3 17.7 0.00 0.10 0.00 49 1008.6
20260503185755 8 5 8.0 16.1 0.00 0.10 0.00 49 1008.6
20260503185635 8 291 8.0 16.1 0.00 0.10 0.00 49 1008.6
20260503185522 8 323 8.0 16.1 0.00 0.10 0.00 48 1008.6
20260503185445 8 315 6.4 16.1 0.00 0.10 0.00 48 1008.6
20260503185341 8 350 4.8 16.1 0.00 0.10 0.00 48 1008.6
20260503185304 9 38 8.0 19.3 0.00 0.10 0.00 49 1008.6
20260503185136 9 355 9.7 19.3 0.00 0.10 0.00 48 1008.6
20260503185020 9 35 8.0 19.3 0.00 0.10 0.00 49 1008.5
20260503184954 9 360 6.4 22.5 0.00 0.10 0.00 50 1008.6
20260503184737 8 296 4.8 22.5 0.00 0.10 0.00 51 1008.6
20260503184642 8 259 4.8 22.5 0.00 0.10 0.00 50 1008.6
20260503184536 8 203 6.4 22.5 0.00 0.10 0.00 51 1008.7
20260503184459 8 196 6.4 22.5 0.00 0.10 0.00 52 1008.7
20260503184414 8 283 8.0 22.5 0.00 0.10 0.00 50 1008.6
20260503184243 8 275 9.7 22.5 0.00 0.10 0.00 49 1008.7
20260503184146 8 309 8.0 22.5 0.00 0.10 0.00 49 1008.7
20260503184029 8 206 3.2 12.9 0.00 0.10 0.00 51 1008.7
20260503183951 8 286 3.2 12.9 0.00 0.10 0.00 50 1008.7
20260503183913 8 259 3.2 12.9 0.00 0.10 0.00 50 1008.7
20260503183816 8 272 4.8 12.9 0.00 0.10 0.00 50 1008.8
20260503183742 8 290 4.8 12.9 0.00 0.10 0.00 50 1008.7
20260503183613 8 342 6.4 12.9 0.00 0.10 0.00 50 1008.7
20260503183529 8 338 6.4 12.9 0.00 0.10 0.00 51 1008.8
20260503183338 8 306 3.2 11.3 0.00 0.10 0.00 51 1008.8
20260503183253 8 345 4.8 11.3 0.00 0.10 0.00 50 1008.8
20260503183122 8 246 4.8 11.3 0.00 0.10 0.00 51 1008.8
20260503183044 8 296 4.8 14.5 0.00 0.10 0.00 51 1008.8
20260503182908 8 282 4.8 14.5 0.00 0.10 0.00 51 1008.8
20260503182830 8 283 4.8 14.5 0.00 0.10 0.00 51 1008.7
20260503182634 8 252 6.4 14.5 0.00 0.10 0.00 50 1008.8
20260503182540 8 248 4.8 14.5 0.00 0.10 0.00 50 1008.8
20260503182423 8 298 4.8 14.5 0.00 0.10 0.00 51 1008.8
20260503182347 8 306 6.4 14.5 0.00 0.10 0.00 51 1008.8
20260503182310 8 343 6.4 14.5 0.00 0.10 0.00 51 1008.8
20260503182130 8 152 4.8 14.5 0.00 0.10 0.00 51 1008.8
20260503182054 8 242 3.2 14.5 0.00 0.10 0.00 52 1008.8
20260503182009 8 271 4.8 16.1 0.00 0.10 0.00 52 1008.8
20260503181910 8 305 6.4 20.9 0.00 0.10 0.00 51 1008.8
20260503181811 8 340 4.8 20.9 0.00 0.10 0.00 51 1008.8
20260503181522 8 270 6.4 20.9 0.00 0.10 0.00 50 1008.8
20260503181448 8 329 8.0 20.9 0.00 0.10 0.00 49 1008.8
20260503181352 8 267 9.7 20.9 0.00 0.10 0.00 50 1008.8
20260503181233 8 275 11.3 20.9 0.00 0.10 0.00 49 1008.8
20260503181129 8 322 12.9 20.9 0.00 0.10 0.00 49 1008.8
20260503181051 8 329 11.3 20.9 0.00 0.10 0.00 50 1008.8
20260503180922 8 328 9.7 17.7 0.00 0.10 0.00 49 1008.8
20260503180816 8 326 11.3 17.7 0.00 0.10 0.00 50 1008.8
20260503180624 8 325 12.9 17.7 0.00 0.10 0.00 50 1008.8
20260503180525 8 334 12.9 17.7 0.00 0.10 0.00 50 1008.7
20260503180328 8 341 11.3 17.7 0.00 0.10 0.00 49 1008.6
20260503180255 8 323 11.3 17.7 0.00 0.10 0.00 49 1008.6
20260503180159 8 329 11.3 17.7 0.00 0.10 0.00 50 1008.7
20260503180121 8 336 11.3 17.7 0.00 0.10 0.00 50 1008.6
20260503175924 8 341 8.0 14.5 0.00 0.10 0.00 50 1008.6
20260503175846 8 327 6.4 16.1 0.00 0.10 0.00 50 1008.6
20260503175714 8 317 4.8 17.7 0.00 0.10 0.00 50 1008.6
20260503175636 8 319 4.8 17.7 0.00 0.10 0.00 50 1008.6
20260503175438 8 265 3.2 17.7 0.00 0.10 0.00 50 1008.6
20260503175402 8 36 3.2 19.3 0.00 0.10 0.00 50 1008.6
20260503175304 8 281 8.0 19.3 0.00 0.10 0.00 50 1008.7
20260503175149 8 296 11.3 19.3 0.00 0.10 0.00 50 1008.7
20260503175031 8 344 11.3 19.3 0.00 0.10 0.00 49 1008.7
20260503174952 8 360 9.7 19.3 0.00 0.10 0.00 51 1008.7
20260503174905 8 341 9.7 19.3 0.00 0.10 0.00 50 1008.7
20260503174808 8 331 11.3 19.3 0.00 0.10 0.00 50 1008.7
20260503174709 8 336 11.3 19.3 0.00 0.10 0.00 50 1008.8
20260503174517 8 21 12.9 17.7 0.00 0.10 0.00 51 1008.8
20260503174418 8 342 9.7 17.7 0.00 0.10 0.00 51 1008.8
20260503174239 8 10 8.0 19.3 0.00 0.10 0.00 52 1008.8
20260503174202 8 19 8.0 19.3 0.00 0.10 0.00 52 1008.8
20260503174117 8 343 6.4 19.3 0.00 0.10 0.00 51 1008.8
20260503173947 8 308 4.8 20.9 0.00 0.10 0.00 50 1008.9
20260503173853 8 327 4.8 20.9 0.00 0.10 0.00 51 1008.8
20260503173634 8 15 12.9 20.9 0.00 0.10 0.00 50 1008.9
20260503173556 8 13 14.5 20.9 0.00 0.10 0.00 51 1008.9
20260503173500 8 347 14.5 20.9 0.00 0.10 0.00 51 1008.9
20260503173423 8 336 14.5 20.9 0.00 0.10 0.00 51 1008.9
20260503173227 8 360 14.5 20.9 0.00 0.10 0.00 50 1008.9
20260503173129 8 323 9.7 20.9 0.00 0.10 0.00 50 1008.8
20260503173031 8 325 8.0 17.7 0.00 0.10 0.00 51 1008.8
20260503172933 8 333 9.7 17.7 0.00 0.10 0.00 50 1008.9
20260503172859 8 311 9.7 17.7 0.00 0.10 0.00 51 1008.9
20260503172804 8 355 8.0 17.7 0.00 0.10 0.00 50 1008.9
20260503172725 8 355 9.7 17.7 0.00 0.10 0.00 50 1008.9
20260503172528 8 19 11.3 17.7 0.00 0.10 0.00 52 1008.9
20260503172429 8 9 9.7 17.7 0.00 0.10 0.00 51 1008.8
20260503172332 8 360 9.7 17.7 0.00 0.10 0.00 51 1008.9
20260503172254 8 350 9.7 17.7 0.00 0.10 0.00 52 1008.9
20260503172216 8 340 11.3 22.5 0.00 0.10 0.00 52 1008.9
20260503172039 8 348 11.3 22.5 0.00 0.10 0.00 52 1008.9
20260503171938 8 345 11.3 22.5 0.00 0.10 0.00 51 1008.9
20260503171839 8 355 9.7 22.5 0.00 0.10 0.00 52 1008.9
20260503171733 8 334 9.7 22.5 0.00 0.10 0.00 52 1009.0
20260503171656 8 329 8.0 22.5 0.00 0.10 0.00 52 1009.0
20260503171559 8 309 8.0 22.5 0.00 0.10 0.00 52 1009.0
20260503171521 8 340 9.7 22.5 0.00 0.10 0.00 51 1009.0
20260503171352 8 338 11.3 22.5 0.00 0.10 0.00 52 1009.0
20260503171133 8 355 8.0 12.9 0.00 0.10 0.00 52 1009.0
20260503171056 8 313 8.0 12.9 0.00 0.10 0.00 52 1009.0
20260503170943 8 321 8.0 17.7 0.00 0.10 0.00 51 1009.0
20260503170845 8 355 8.0 17.7 0.00 0.10 0.00 52 1009.1
20260503170805 8 323 8.0 17.7 0.00 0.10 0.00 51 1009.1
20260503170721 8 338 8.0 17.7 0.00 0.10 0.00 51 1009.1
20260503170643 8 346 8.0 17.7 0.00 0.10 0.00 51 1009.1
20260503170513 8 341 8.0 17.7 0.00 0.10 0.00 51 1009.0
20260503170429 8 348 6.4 17.7 0.00 0.10 0.00 51 1009.0
20260503170259 8 292 8.0 17.7 0.00 0.10 0.00 51 1009.1
20260503170113 8 283 9.7 17.7 0.00 0.10 0.00 51 1009.1
20260503160155 7 291 16.1 25.7 0.00 0.10 0.00 51 1009.6
20260503160118 7 327 14.5 25.7 0.00 0.10 0.00 51 1009.7
20260503150826 9 355 14.5 20.9 0.00 0.10 0.00 50 1009.8
20260503150748 9 317 11.3 19.3 0.00 0.10 0.00 49 1009.8
20260503150631 9 329 9.7 19.3 0.00 0.10 0.00 50 1009.7
20260503150555 9 225 9.7 19.3 0.00 0.10 0.00 47 1009.7
20260503150522 9 296 9.7 19.3 0.00 0.10 0.00 49 1009.8
20260503150331 9 319 9.7 24.1 0.00 0.10 0.00 50 1009.7
20260503150232 9 26 9.7 24.1 0.00 0.10 0.00 48 1009.7
20260503150138 9 13 9.7 27.4 0.00 0.10 0.00 48 1009.7
20260503140234 8 360 6.4 25.7 0.00 0.10 0.00 45 1010.0
20260503140136 8 351 8.0 25.7 0.00 0.10 0.00 46 1010.0
20260503131343 7 355 8.0 17.7 0.00 0.10 0.00 16 1010.3
20260503131238 7 350 4.8 17.7 0.00 0.10 0.00 19 1010.4
20260503131157 7 360 6.4 17.7 0.00 0.10 0.00 23 1010.4
20260503131109 7 331 9.7 19.3 0.00 0.10 0.00 23 1010.4
20260503131028 7 310 11.3 19.3 0.00 0.10 0.00 20 1010.4
20260503130834 7 321 9.7 19.3 0.00 0.10 0.00 18 1010.4
20260503130726 7 303 9.7 19.3 0.00 0.10 0.00 17 1010.4
20260503130534 7 331 12.9 19.3 0.00 0.10 0.00 19 1010.4
20260503130444 7 16 14.5 19.3 0.00 0.10 0.00 12 1010.4
20260503130324 7 340 12.9 19.3 0.00 0.10 0.00 12 1010.4
20260503130239 7 345 9.7 17.7 0.00 0.10 0.00 10 1010.4
20260503120157 5 335 4.8 14.5 0.00 0.10 0.00 1 1010.5
20260503110730 3 277 0.0 1.6 0.00 0.13 0.00 1 1010.5
20260503110612 3 277 0.0 1.6 0.00 0.13 0.00 1 1010.5
20260503110534 3 277 0.0 1.6 0.00 0.13 0.00 1 1010.5
20260503110405 3 277 0.0 1.6 0.00 0.13 0.00 1 1010.5
20260503110318 3 277 0.0 1.6 0.00 0.13 0.00 1 1010.5
20260503110158 3 277 0.0 0.0 0.00 0.13 0.00 1 1010.5
20260503100229 3 355 0.0 0.0 0.00 0.13 0.00 1 1010.3
20260503100132 3 355 0.0 0.0 0.00 0.13 0.00 1 1010.3
20260503090512 3 355 0.0 0.0 0.00 0.13 0.00 1 1010.4
20260503090333 3 355 0.0 0.0 0.00 0.13 0.00 1 1010.4
20260503090257 3 355 0.0 0.0 0.00 0.13 0.00 1 1010.4
20260503090159 3 355 0.0 0.0 0.00 0.13 0.00 1 1010.4
20260503081625 3 355 0.0 0.0 0.00 0.13 0.00 1 1010.7
20260503081549 3 355 0.0 0.0 0.00 0.13 0.00 1 1010.7
20260503081504 3 355 0.0 0.0 0.00 0.13 0.00 1 1010.7
20260503081426 3 355 0.0 0.0 0.00 0.13 0.00 1 1010.7
20260503081229 3 355 0.0 0.0 0.00 0.13 0.00 1 1010.7
20260503081132 3 355 0.0 0.0 0.00 0.13 0.00 1 1010.7
20260503081027 3 355 0.0 0.0 0.00 0.13 0.00 1 1010.7
20260503080926 3 355 0.0 0.0 0.00 0.13 0.00 1 1010.7
20260503080829 3 355 0.0 0.0 0.00 0.13 0.00 1 1010.8
20260503080722 3 355 0.0 0.0 0.00 0.13 0.00 1 1010.8
20260503080647 3 355 0.0 0.0 0.00 0.13 0.00 1 1010.8
20260503080529 3 355 0.0 0.0 0.00 0.13 0.00 1 1010.8
20260503080451 3 355 0.0 0.0 0.00 0.13 0.00 1 1010.7
20260503080231 3 355 0.0 0.0 0.00 0.13 0.00 1 1010.8
20260503080154 3 355 0.0 0.0 0.00 0.13 0.00 1 1010.8
20260503080104 3 355 0.0 0.0 0.00 0.13 0.00 1 1010.7
20260503072910 3 355 0.0 0.0 0.00 0.13 0.00 1 1010.7
20260503072831 3 355 0.0 0.0 0.00 0.13 0.00 1 1010.7
20260503072634 3 355 0.0 0.0 0.00 0.13 0.00 1 1010.7
20260503072535 3 355 0.0 0.0 0.00 0.13 0.00 1 1010.7